Weather in Kraynovka

Russia / Republic of Dagestan     43°58′31″N   47°22′33″E
temp.,
°C
wind,
m/s
gust,
m/s
humid.,
%
clouds,
%
prec.,
mm/h
press.,
hPa
HPBL,
m
10 august, wed
wed1000:00+26ne22590 0.0 101375
03:00+26ne45690 0.0 1012250
06:00+27ene57710 0.0 1013365
09:00+27e79680 0.0 1012439
12:00+27e78720 0.0 1012425
15:00+27e710710 0.0 1010416
18:00+27ese812710 0.0 1010444
21:00+27ese812710 0.0 1010392
11 august, thu
thu1100:00+27ese913730 0.0 1009420
03:00+27ese1015720 0.0 1008463
06:00+27ese1117720 0.0 1009539
09:00+28ese1218620 0.0 1009609
12:00+28ese1319650 0.0 1009649
15:00+28ese1319630 0.0 1009505
18:00+28ese1219650 0.0 1009474
21:00+28ese1118604 0.0 1010397
12 august, fri
fri1200:00+27e914760 0.0 1010394
03:00+27ese916720 0.0 1010391
06:00+28se1017655 0.0 1011486
09:00+28se1116664 0.0 1012559
12:00+27ese11156941 0.0 1013556
15:00+27ese1015660 0.0 1012500
18:00+28ese813630 0.0 1012314
21:00+27e711685 0.0 1013251
13 august, sat
sat1300:00+27e687651 0.0 1012200
03:00+27ese686662 0.0 1012173
06:00+27ese586617 0.0 1012196
09:00+27ese912719 0.0 1012464
12:00+27ese1013730 0.0 1012392
15:00+27ese1015680 0.0 1012421
18:00+27e812700 0.0 1012327
21:00+27e712692 0.0 1012216
14 august, sun
sun1400:00+27e69765 0.0 1010205
03:00+27ese56785 0.0 1010149
06:00+27ese57675 0.0 1010157
09:00+28e67625 0.0 1010207
12:00+27e89700 0.0 1010263
15:00+28ese914710 0.0 1009351
18:00+28ese814680 0.0 1009265
21:00+28e1015690 0.0 1010296